Date String (YYYY-MM-DD hh:mm:ss) UTC,Instrument flags,absolute air pressure of the measurement (hPa),sample flow rate (lpm),inlet stack bypass flow (lpm),air temperature of the measurement (°C),ambient temperature measured by the external sensor (°C),aerosol sample conditioner tube jacket temperature (°C),OPC LED temperature (°C),internal box temperature (°C),relative humidity of the measurement (%),span deviation,mass concentration of particles derived from Lorenz-Mie calculation of OPC scattering (μg/m³),mass concentration of particles derived from Lorenz-Mie calculation of OPC scattering (μg/m³),mass concentration of particles derived from Lorenz-Mie calculation of OPC scattering (μg/m³)
DateTimeUTC,F1_M11,P_M11,Q1_M11,Q2_M11,T1_M11,T2_M11,T3_M11,T4_M11,T5_M11,U1_M11,ZSPAN_M11,X2_M11,X0_M11,X1_M11
2023-07-06 16:00:00,SystemResetWarning,0833.4,5.00,000.00,030.3,028.9,000.0,038.8,031.8,33.1,-002.1,0007.85,0012.06,0007.27
2023-07-06 16:01:00,SystemResetWarning,0833.4,4.99,000.00,030.3,028.6,000.0,038.8,031.7,33.1,-002.0,0007.90,0012.14,0007.28
2023-07-06 16:02:00,SystemResetWarning,0833.2,4.99,000.00,030.3,026.9,000.0,038.6,031.5,32.1,-002.0,0007.89,0012.06,0007.30
2023-07-06 16:03:00,SystemResetWarning,0833.2,5.01,000.00,030.2,025.6,000.0,038.5,031.3,32.9,-001.9,0007.90,0012.13,0007.31
2023-07-06 16:04:00,SystemResetWarning,0833.2,5.01,000.00,030.1,025.4,000.0,038.5,031.1,32.3,-001.7,0007.88,0012.08,0007.32
2023-07-06 16:05:00,SystemResetWarning,0833.2,5.01,000.00,029.9,025.7,000.0,038.5,030.9,32.8,-001.5,0007.85,0011.94,0007.33
2023-07-06 16:06:00,SystemResetWarning,0833.2,5.00,000.00,029.8,026.2,000.0,038.5,031.0,34.3,-001.5,0007.84,0011.79,0007.33
2023-07-06 16:07:00,SystemResetWarning,0833.1,4.99,000.00,029.8,026.6,000.0,038.5,031.0,35.0,-001.7,0007.81,0011.36,0007.34
2023-07-06 16:08:00,SystemResetWarning,0833.2,5.01,000.00,029.9,027.0,000.0,038.5,031.1,33.3,-001.7,0007.84,0011.65,0007.39
2023-07-06 16:09:00,SystemResetWarning,0833.2,4.98,000.00,030.0,027.3,000.0,038.5,031.2,33.5,-001.8,0007.88,0011.87,0007.42
2023-07-06 16:10:00,SystemResetWarning,0833.2,5.00,000.00,030.0,027.6,000.0,038.5,031.3,33.0,-002.2,0007.90,0011.85,0007.45
2023-07-06 16:11:00,SystemResetWarning,0833.2,5.01,000.00,030.0,027.8,000.0,038.5,031.3,33.4,-002.4,0007.92,0011.89,0007.47
2023-07-06 16:12:00,SystemResetWarning,0833.2,5.00,000.00,030.1,028.0,000.0,038.5,031.3,33.5,-002.5,0007.89,0011.83,0007.46
2023-07-06 16:13:00,SystemResetWarning,0833.1,4.98,000.00,030.1,028.1,000.0,038.5,031.4,34.6,-002.5,0007.86,0011.76,0007.46
2023-07-06 16:14:00,SystemResetWarning,0833.2,5.00,000.00,030.1,028.3,000.0,038.5,031.4,33.4,-002.8,0007.87,0011.74,0007.45
2023-07-06 16:15:00,SystemResetWarning,0833.2,5.00,000.00,030.2,028.4,000.0,038.5,031.5,33.0,-002.9,0007.90,0011.73,0007.45
2023-07-06 16:16:00,SystemResetWarning,0833.2,5.00,000.00,030.2,028.5,000.0,038.6,031.5,33.9,-003.1,0007.91,0011.78,0007.45
2023-07-06 16:17:00,SystemResetWarning,0833.2,5.01,000.00,030.2,028.6,000.0,038.6,031.5,32.9,-003.2,0007.91,0011.80,0007.45
2023-07-06 16:18:00,SystemResetWarning,0833.2,5.00,000.00,030.2,028.6,000.0,038.6,031.5,32.3,-003.1,0007.92,0011.77,0007.44
2023-07-06 16:19:00,SystemResetWarning,0833.2,5.00,000.00,030.2,028.7,000.0,038.6,031.6,33.9,-002.9,0007.91,0011.53,0007.43
2023-07-06 16:20:00,SystemResetWarning,0833.2,4.99,000.00,030.3,028.8,000.0,038.7,031.6,34.1,-002.6,0007.90,0011.31,0007.42
2023-07-06 16:21:00,SystemResetWarning,0833.2,4.99,000.00,030.3,028.7,000.0,038.7,031.7,33.5,-002.1,0007.90,0011.29,0007.43
2023-07-06 16:22:00,SystemResetWarning,0833.2,5.00,000.00,030.3,027.4,000.0,038.6,031.5,32.2,-001.9,0007.92,0011.33,0007.46
2023-07-06 16:23:00,SystemResetWarning,0833.2,5.01,000.00,030.2,026.4,000.0,038.5,031.4,32.9,-001.7,0007.92,0011.29,0007.47
2023-07-06 16:24:00,SystemResetWarning,0833.2,5.01,000.00,030.2,026.3,000.0,038.5,031.2,32.9,-001.7,0007.95,0011.32,0007.47
2023-07-06 16:25:00,SystemResetWarning,0833.2,5.01,000.00,030.0,026.6,000.0,038.5,031.1,33.8,-001.6,0007.95,0011.31,0007.48
2023-07-06 16:26:00,SystemResetWarning,0833.1,5.00,000.00,030.0,026.9,000.0,038.5,031.1,34.3,-001.5,0007.94,0011.17,0007.50
2023-07-06 16:27:00,SystemResetWarning,0833.2,4.98,000.00,030.0,027.2,000.0,038.5,031.2,34.7,-001.4,0007.98,0011.21,0007.53
2023-07-06 16:28:00,SystemResetWarning,0833.1,5.03,000.00,030.1,027.5,000.0,038.5,031.3,34.8,-001.2,0008.05,0011.28,0007.57
2023-07-06 16:29:00,SystemResetWarning,0833.1,4.96,000.00,030.2,027.7,000.0,038.5,031.4,32.8,-001.3,0008.10,0011.38,0007.61
2023-07-06 16:30:00,SystemResetWarning,0833.1,5.02,000.00,030.3,027.9,000.0,038.5,031.4,33.2,-001.4,0008.12,0011.45,0007.61
2023-07-06 16:31:00,SystemResetWarning,0833.0,5.00,000.00,030.3,028.1,000.0,038.6,031.5,33.8,-001.8,0008.15,0011.58,0007.61
2023-07-06 16:32:00,SystemResetWarning,0833.3,4.99,000.00,030.4,028.3,000.0,038.6,031.5,32.7,-002.0,0008.16,0011.64,0007.62
2023-07-06 16:33:00,SystemResetWarning,0833.4,5.00,000.00,030.4,028.4,000.0,038.6,031.5,33.4,-001.6,0008.16,0011.64,0007.61
2023-07-06 16:34:00,SystemResetWarning,0833.4,5.00,000.00,030.4,028.5,000.0,038.7,031.6,33.9,-001.7,0008.15,0011.90,0007.60
2023-07-06 16:35:00,SystemResetWarning,0833.3,5.01,000.00,030.5,028.6,000.0,038.7,031.6,33.2,-001.8,0008.18,0012.22,0007.61
2023-07-06 16:36:00,SystemResetWarning,0833.3,4.99,000.00,030.5,028.7,000.0,038.7,031.6,33.7,-001.7,0008.20,0012.27,0007.63
2023-07-06 16:37:00,SystemResetWarning,0833.3,4.99,000.00,030.5,028.6,000.0,038.7,031.7,33.1,-001.6,0008.21,0012.43,0007.63
2023-07-06 16:38:00,SystemResetWarning,0832.9,5.00,000.00,030.5,027.2,000.0,038.6,031.6,33.0,-001.6,0008.22,0012.76,0007.63
2023-07-06 16:39:00,SystemResetWarning,0833.1,5.00,000.00,030.4,025.7,000.0,038.5,031.3,33.5,-001.7,0008.19,0012.76,0007.63
2023-07-06 16:40:00,SystemResetWarning,0832.8,5.01,000.00,030.3,025.3,000.0,038.5,031.1,33.4,-001.7,0008.17,0012.70,0007.63
2023-07-06 16:41:00,SystemResetWarning,0832.7,5.01,000.00,030.2,025.6,000.0,038.5,030.9,34.2,-001.6,0008.15,0012.58,0007.66
2023-07-06 16:42:00,SystemResetWarning,0832.6,5.00,000.00,030.1,026.0,000.0,038.5,030.9,34.3,-001.4,0008.16,0012.47,0007.70
2023-07-06 16:43:00,SystemResetWarning,0832.6,5.00,000.00,030.1,026.4,000.0,038.5,031.0,35.4,-001.2,0008.17,0012.42,0007.74
2023-07-06 16:44:00,SystemResetWarning,0832.6,5.01,000.00,030.2,026.8,000.0,038.5,031.1,34.1,-001.6,0008.21,0012.44,0007.79
2023-07-06 16:45:00,SystemResetWarning,0832.5,4.98,000.00,030.3,027.1,000.0,038.5,031.2,33.8,-001.6,0008.28,0012.35,0007.84
2023-07-06 16:46:00,SystemResetWarning,0832.5,5.02,000.00,030.3,027.4,000.0,038.5,031.2,33.4,-001.6,0008.32,0012.03,0007.91
2023-07-06 16:47:00,SystemResetWarning,0832.5,5.00,000.00,030.4,027.6,000.0,038.6,031.3,33.7,-001.7,0008.33,0011.99,0007.94
2023-07-06 16:48:00,SystemResetWarning,0832.4,4.99,000.00,030.4,027.8,000.0,038.6,031.3,33.9,-001.9,0008.37,0012.08,0007.99
2023-07-06 16:49:00,SystemResetWarning,0832.3,5.01,000.00,030.4,027.9,000.0,038.6,031.3,33.9,-002.0,0008.41,0011.86,0008.03
2023-07-06 16:50:00,SystemResetWarning,0832.3,5.01,000.00,030.4,028.1,000.0,038.6,031.4,34.0,-002.1,0008.45,0011.91,0008.07
2023-07-06 16:51:00,SystemResetWarning,0832.3,5.01,000.00,030.4,028.2,000.0,038.7,031.4,33.8,-002.2,0008.50,0011.94,0008.11
2023-07-06 16:52:00,SystemResetWarning,0832.3,4.99,000.00,030.4,028.3,000.0,038.7,031.4,34.6,-002.3,0008.57,0012.06,0008.15
2023-07-06 16:53:00,SystemResetWarning,0832.3,5.01,000.00,030.5,028.4,000.0,038.7,031.5,34.6,-001.9,0008.62,0012.16,0008.19
2023-07-06 16:54:00,SystemResetWarning,0832.3,5.00,000.00,030.5,028.4,000.0,038.7,031.5,33.7,-001.8,0008.69,0012.44,0008.24
2023-07-06 16:55:00,SystemResetWarning,0832.5,4.99,000.00,030.6,028.4,000.0,038.8,031.5,34.3,-001.7,0008.72,0012.46,0008.27
2023-07-06 16:56:00,SystemResetWarning,0832.5,4.99,000.00,030.6,028.5,000.0,038.8,031.5,34.8,-001.7,0008.72,0012.66,0008.27
2023-07-06 16:57:00,SystemResetWarning,0832.6,5.04,000.00,030.6,028.5,000.0,038.8,031.6,34.6,-001.7,0008.76,0014.27,0008.28
2023-07-06 16:58:00,SystemResetWarning,0832.7,4.96,000.00,030.8,028.6,000.0,038.8,031.7,33.5,-001.6,0008.85,0014.57,0008.34
2023-07-06 16:59:00,SystemResetWarning,0832.8,5.01,000.00,030.8,028.6,000.0,038.9,031.7,33.7,-001.6,0008.87,0014.65,0008.34
